Find Local Weather

World > North America > United States > Florida

Panama City, Florida Regional Weather

Lat: 30.17N, Lon: 85.67W
Wx Zone: FLZ012
Feedback
Expires:201812121100;;673707
ASUS42 KTBW 121016
RWRFL 
FLORIDA REGIONAL WEATHER ROUNDUP
NATIONAL WEATHER SERVICE TAMPA BAY RUSKIN FL
500 AM EST WED DEC 12 2018

NOTE: "FAIR" INDICATES FEW OR NO CLOUDS BELOW 12,000 FEET WITH NO
SIGNIFICANT WEATHER AND/OR OBSTRUCTIONS TO VISIBILITY.


FLZ001>010-012>015-112-114-115-121100-
PANHANDLE FLORIDA
  
CITY           SKY/WX    TMP DP  RH WIND       PRES   REMARKS
PENSACOLA      FAIR      35  32  88 CALM      30.26F                  
CRESTVIEW      FAIR      28  25  88 CALM      30.28F                  
DUKE FIELD     FAIR      27  26  95 CALM      30.26F                  
VALPARAISO     FAIR      31  28  89 N3        30.27S                  
MARY ESTHER    FAIR      33  31  92 N5        30.26F WCI  28          
PANAMA CITY    FAIR      32  30  92 CALM      30.28R                  
TYNDALL AFB    FAIR      36  34  93 CALM      30.29R FOG              
APALACHICOLA   FAIR      33  30  88 E3        30.26F                  

STATION/POSITION SKY/WX   TEMP    WIND        PRES    WAVE   SWELL
                          AIR SEA DIR/SP/G            HT/PER HT/PER
                          (F)     (DEG/KT/KT) (MB)    (FT/S) (FT/S)
30.1N   87.6W                                 1025.2F   1
29.2N   88.2W                 71  150/  8/ 14 1025.1
PANAMA CITY BEAC           40 63   10/  2/  4 1026.0R
TOWER C                    52      70/  7/  9 1025.3R

$$

SKY/WX - Weather  TMP - Temperature  DP - Dew Point  RH - Relative Humidity
WIND - Wind Direction/Speed PRES - Barometric Pressure